TimeAEST,TemperatureF,Dew PointF,Humidity,Sea Level PressureIn,VisibilityMPH,Wind Direction,Wind SpeedMPH,Gust SpeedMPH,PrecipitationIn,Events,Conditions,WindDirDegrees,DateUTC
12:00 AM,57,41,44,30.20,16,WSW,10.4,,,,Partly Cloudy,240,2013-08-25 14:00:00
12:00 AM,57.2,41.0,55,30.18,-9999.0,WSW,10.4,-,N/A,,Clear,240,2013-08-25 14:00:00
12:30 AM,55.4,41.0,58,30.18,-9999.0,WSW,11.5,-,N/A,,Clear,250,2013-08-25 14:30:00
1:00 AM,55,41,48,30.20,,WSW,11.5,,,,,240,2013-08-25 15:00:00
1:00 AM,55.4,41.0,58,30.18,-9999.0,WSW,11.5,-,N/A,,Clear,240,2013-08-25 15:00:00
1:30 AM,55.4,41.0,58,30.18,-9999.0,WSW,10.4,-,N/A,,Clear,240,2013-08-25 15:30:00
2:00 AM,54,41,51,30.20,,WSW,8.1,,,,,240,2013-08-25 16:00:00
2:00 AM,53.6,41.0,62,30.18,-9999.0,WSW,8.1,-,N/A,,Clear,240,2013-08-25 16:00:00
2:30 AM,53.6,41.0,62,30.18,-9999.0,WSW,8.1,-,N/A,,Clear,240,2013-08-25 16:30:00
3:00 AM,54,41,50,30.20,16,WSW,9.2,,,,Partly Cloudy,250,2013-08-25 17:00:00
3:00 AM,53.6,41.0,62,30.18,-9999.0,WSW,9.2,-,N/A,,Clear,250,2013-08-25 17:00:00
3:30 AM,53.6,41.0,62,30.18,-9999.0,WSW,8.1,-,N/A,,Clear,250,2013-08-25 17:30:00
4:00 AM,54,40,48,30.21,,WSW,10.4,,,,,250,2013-08-25 18:00:00
4:00 AM,53.6,41.0,62,30.18,-9999.0,WSW,10.4,-,N/A,,Clear,250,2013-08-25 18:00:00
4:30 AM,53.6,39.2,58,30.21,-9999.0,WSW,11.5,-,N/A,,Clear,250,2013-08-25 18:30:00
5:00 AM,54,39,46,30.22,,WSW,10.4,,,,,250,2013-08-25 19:00:00
5:00 AM,53.6,39.2,58,30.21,-9999.0,WSW,10.4,-,N/A,,Clear,250,2013-08-25 19:00:00
5:30 AM,53.6,39.2,58,30.21,6.2,WSW,10.4,-,N/A,,Partly Cloudy,250,2013-08-25 19:30:00
6:00 AM,55,39,43,30.23,16,West,11.5,,,,Partly Cloudy,260,2013-08-25 20:00:00
6:00 AM,55.4,39.2,54,30.21,6.2,West,11.5,-,N/A,,Partly Cloudy,260,2013-08-25 20:00:00
6:30 AM,55.4,39.2,54,30.24,6.2,West,11.5,-,N/A,,Scattered Clouds,260,2013-08-25 20:30:00
7:00 AM,54,40,47,30.25,,WSW,12.7,,,,,250,2013-08-25 21:00:00
7:00 AM,55.4,39.2,54,30.24,6.2,WSW,12.7,-,N/A,,Scattered Clouds,250,2013-08-25 21:00:00
7:30 AM,55.4,39.2,54,30.24,6.2,West,12.7,-,N/A,,Partly Cloudy,260,2013-08-25 21:30:00
8:00 AM,56,40,43,30.26,,West,15.0,,,,,260,2013-08-25 22:00:00
8:00 AM,55.4,39.2,54,30.24,6.2,West,15.0,-,N/A,,Partly Cloudy,260,2013-08-25 22:00:00
8:30 AM,57.2,41.0,55,30.24,6.2,West,13.8,-,N/A,,Scattered Clouds,260,2013-08-25 22:30:00
9:00 AM,58,40,39,30.26,19,West,11.5,,,,Partly Cloudy,260,2013-08-25 23:00:00
9:00 AM,57.2,39.2,51,30.24,6.2,West,11.5,-,N/A,,Scattered Clouds,260,2013-08-25 23:00:00
9:30 AM,62.6,41.0,45,30.24,6.2,West,10.4,-,N/A,,Scattered Clouds,260,2013-08-25 23:30:00
10:00 AM,62,41,35,30.24,,WSW,10.4,,,,,250,2013-08-26 00:00:00
10:00 AM,62.6,41.0,45,30.24,6.2,WSW,10.4,-,N/A,,Scattered Clouds,250,2013-08-26 00:00:00
10:30 AM,62.6,46.4,55,30.21,6.2,WSW,8.1,-,N/A,,Scattered Clouds,250,2013-08-26 00:30:00
11:00 AM,63,46,42,30.22,,West,5.8,,,,,280,2013-08-26 01:00:00
11:00 AM,62.6,46.4,55,30.21,6.2,West,5.8,-,N/A,,Partly Cloudy,280,2013-08-26 01:00:00
11:30 AM,62.6,48.2,59,30.21,6.2,SW,5.8,-,N/A,,Scattered Clouds,230,2013-08-26 01:30:00
12:00 PM,65,45,37,30.19,19,SSW,6.9,,,,Partly Cloudy,200,2013-08-26 02:00:00
12:00 PM,64.4,44.6,49,30.18,6.2,SSW,6.9,-,N/A,,Mostly Cloudy,200,2013-08-26 02:00:00
12:30 PM,64.4,42.8,45,30.15,6.2,NE,3.5,-,N/A,,Mostly Cloudy,50,2013-08-26 02:30:00
1:00 PM,66,42,30,30.16,,East,4.6,,,,,80,2013-08-26 03:00:00
1:00 PM,66.2,42.8,43,30.15,6.2,East,4.6,-,N/A,,Mostly Cloudy,80,2013-08-26 03:00:00
1:30 PM,68.0,41.0,37,30.12,6.2,ENE,4.6,-,N/A,,Mostly Cloudy,60,2013-08-26 03:30:00
2:00 PM,68.0,41.0,37,30.12,-9999.0,ESE,5.8,-,N/A,,Clear,110,2013-08-26 04:00:00
2:30 PM,68.0,37.4,33,30.12,-9999.0,East,6.9,-,N/A,,Clear,100,2013-08-26 04:30:00
3:00 PM,67,46,36,30.13,19,East,5.8,,,,Partly Cloudy,90,2013-08-26 05:00:00
3:00 PM,68.0,46.4,46,30.12,-9999.0,East,5.8,-,N/A,,Clear,90,2013-08-26 05:00:00
3:30 PM,66.2,46.4,49,30.12,-9999.0,ESE,6.9,-,N/A,,Clear,120,2013-08-26 05:30:00
4:00 PM,66,48,41,30.13,,SE,9.2,,,,,130,2013-08-26 06:00:00
4:00 PM,66.2,48.2,52,30.12,-9999.0,SE,9.2,-,N/A,,Clear,130,2013-08-26 06:00:00
4:30 PM,64.4,48.2,56,30.12,-9999.0,ESE,9.2,-,N/A,,Clear,110,2013-08-26 06:30:00
5:00 PM,64,48,45,30.14,,East,8.1,,,,,80,2013-08-26 07:00:00
5:00 PM,64.4,48.2,56,30.12,-9999.0,East,8.1,-,N/A,,Clear,80,2013-08-26 07:00:00
5:30 PM,62.6,51.8,68,30.12,6.2,SE,8.1,-,N/A,,Mostly Cloudy,140,2013-08-26 07:30:00
6:00 PM,62,51,59,30.15,19,SSE,5.8,,,,Partly Cloudy,160,2013-08-26 08:00:00
6:00 PM,62.6,51.8,68,30.12,-9999.0,SSE,5.8,-,N/A,,Clear,160,2013-08-26 08:00:00
6:30 PM,60.8,51.8,72,30.15,-9999.0,South,6.9,-,N/A,,Clear,170,2013-08-26 08:30:00
7:00 PM,59,54,80,30.17,,SSW,8.1,,,,,200,2013-08-26 09:00:00
7:00 PM,59.0,55.4,88,30.15,-9999.0,SSW,8.1,-,N/A,,Clear,200,2013-08-26 09:00:00
7:30 PM,59.0,53.6,82,30.15,-9999.0,SSW,6.9,-,N/A,,Clear,210,2013-08-26 09:30:00
8:00 PM,59,52,71,30.18,,SW,5.8,,,,,230,2013-08-26 10:00:00
8:00 PM,59.0,51.8,77,30.15,-9999.0,SW,5.8,-,N/A,,Clear,230,2013-08-26 10:00:00
8:30 PM,59.0,51.8,77,30.18,-9999.0,WSW,6.9,-,N/A,,Clear,240,2013-08-26 10:30:00
9:00 PM,58,49,63,30.19,16,WSW,5.8,,,,Partly Cloudy,250,2013-08-26 11:00:00
9:00 PM,59.0,48.2,67,30.18,-9999.0,WSW,5.8,-,N/A,,Clear,250,2013-08-26 11:00:00
9:30 PM,60.8,42.8,52,30.18,-9999.0,WSW,10.4,-,N/A,,Clear,240,2013-08-26 11:30:00
10:00 PM,60,42,40,30.19,,SW,9.2,,,,,230,2013-08-26 12:00:00
10:00 PM,59.0,42.8,55,30.18,-9999.0,SW,9.2,-,N/A,,Clear,230,2013-08-26 12:00:00
10:30 PM,59.0,42.8,55,30.18,-9999.0,WSW,8.1,-,N/A,,Clear,250,2013-08-26 12:30:00
11:00 PM,59,41,40,30.18,,WSW,10.4,,,,,250,2013-08-26 13:00:00
11:00 PM,59.0,41.0,51,30.18,-9999.0,WSW,10.4,-,N/A,,Clear,250,2013-08-26 13:00:00
11:30 PM,59.0,41.0,51,30.18,-9999.0,WSW,13.8,-,N/A,,Clear,250,2013-08-26 13:30:00